Tracking 30995 objects as of 5-Jul-2025
HD Live streaming from Space Station
objects crossing your sky now

STARLINK-6374

Track STARLINK-6374 now!
10-day predictions
STARLINK-6374 is classified as:


NORAD ID: 57338
Int'l Code: 2023-099L
Perigee: 565.6 km
Apogee: 566.9 km
Inclination: 43.0 °
Period: 95.8 minutes
Semi major axis: 6937 km
RCS: Unknown
Launch date: July 16, 2023
Source: United States (US)
Launch site: AIR FORCE EASTERN TEST RANGE (AFETR)
Your satellite tracking list
Your tracking list is empty




NASA's NSSDC Master Catalog

Two Line Element Set (TLE):
1 57338U 23099L   25186.31084020 -.00000397  00000-0 -14357-4 0  9994
2 57338  43.0035 153.2239 0000948 275.9044  84.1690 15.02534382108909
Source of the keplerian elements: AFSPC